This is the latest recevied weather packets stored in our database for station/object K1JO. If no packets are shown the sender has not sent any weather packets the latest 10 day(s).
| Time | Temp. | Humidity | Pressure | Rain* | Wind** | Luminosity | Snow |
|---|---|---|---|---|---|---|---|
| 1777582964 | 8.33° C | 99% | 1003.5 hPa | 8.89 mm | - | 9 W/m² | - |
| 1777582662 | 8.33° C | 99% | 1003.5 hPa | 8.89 mm | - | 10 W/m² | - |
| 1777582357 | 8.33° C | 99% | 1003.5 hPa | 8.89 mm | - | 13 W/m² | - |
| 1777582055 | 8.89° C | 99% | 1003.6 hPa | 4.83 mm | - | 11 W/m² | - |
| 1777581750 | 8.89° C | 99% | 1003.5 hPa | 4.83 mm | - | 15 W/m² | - |
| 1777581449 | 8.33° C | 99% | 1003.5 hPa | 10.16 mm | - | 25 W/m² | - |
| 1777581144 | 8.89° C | 99% | 1003.6 hPa | 10.67 mm | - | 26 W/m² | - |
| 1777580839 | 8.33° C | 99% | 1003.9 hPa | 7.87 mm | - | 13 W/m² | - |
| 1777580534 | 8.33° C | 99% | 1003.6 hPa | 6.1 mm | - | 14 W/m² | - |
| 1777580229 | 8.33° C | 99% | 1003.7 hPa | 8.89 mm | - | 14 W/m² | - |
| 1777579927 | 8.33° C | 99% | 1003.7 hPa | 10.67 mm | - | 17 W/m² | - |
| 1777579622 | 8.89° C | 99% | 1003.6 hPa | 9.65 mm | - | 18 W/m² | - |
| 1777579316 | 8.89° C | 99% | 1003.5 hPa | 7.87 mm | - | 16 W/m² | - |
| 1777579012 | 8.89° C | 99% | 1003.7 hPa | 4.32 mm | - | 17 W/m² | - |
| 1777578707 | 8.89° C | 99% | 1003.9 hPa | 3.05 mm | - | 20 W/m² | - |
| 1777578406 | 8.89° C | 99% | 1003.6 hPa | 1.78 mm | - | 26 W/m² | - |
| 1777578102 | 8.89° C | 99% | 1003.7 hPa | 0 mm | - | 33 W/m² | - |
| 1777577799 | 8.89° C | 99% | 1003.5 hPa | 1.27 mm | - | 33 W/m² | - |
| 1777577494 | 8.89° C | 99% | 1003.6 hPa | 1.27 mm | - | 48 W/m² | - |
| 1777577191 | 8.89° C | 99% | 1003.9 hPa | 1.78 mm | - | 51 W/m² | - |
| 1777576887 | 8.89° C | 99% | 1003.9 hPa | 1.78 mm | - | 49 W/m² | - |
| 1777576581 | 8.89° C | 99% | 1003.9 hPa | 0 mm | - | 53 W/m² | - |
| 1777576277 | 8.89° C | 99% | 1003.9 hPa | 0 mm | - | 75 W/m² | - |
| 1777575974 | 8.89° C | 99% | 1004.2 hPa | 0 mm | - | 54 W/m² | - |
| 1777575669 | 8.89° C | 99% | 1004.4 hPa | 0 mm | - | 67 W/m² | - |
* Rain latest hour (hover to see other rain measurements)
** Current wind speed in m/s (hover to see current wind gust speed)